FW9143 Weather Reports


Display with metric or nautical units.
time (UTC)temp
F
wind
direction
speed
MPH
gust
MPH
rain 1hr
in
rain 24hr
in
rain mn
in
humidity
%
barometer
mb
20260505102016 67 83 1.0 4.0 0.00 0.00 0.00 83 1004.2
20260505101016 67 171 0.0 4.0 0.00 0.00 0.00 82 1003.9
20260505100016 68 184 3.0 7.0 0.00 0.00 0.00 81 1003.9
20260505095016 67 146 1.0 6.0 0.00 0.00 0.00 80 1003.8
20260505094016 67 157 2.0 6.0 0.00 0.00 0.00 80 1003.9
20260505093015 67 145 2.0 3.0 0.00 0.00 0.00 79 1003.8
20260505092015 67 153 1.0 3.0 0.00 0.00 0.00 79 1003.8
20260505091016 67 58 0.0 2.0 0.00 0.00 0.00 77 1003.6
20260505090015 67 71 1.0 3.0 0.00 0.00 0.00 77 1003.7
20260505085016 67 65 0.0 1.0 0.00 0.00 0.00 77 1004.2
20260505084016 67 52 0.0 1.0 0.00 0.00 0.00 76 1004.1
20260505083014 67 57 1.0 4.0 0.00 0.00 0.00 76 1004.2
20260505082016 67 71 1.0 3.0 0.00 0.00 0.00 76 1004.3
20260505081016 67 75 2.0 6.0 0.00 0.00 0.00 76 1004.7
20260505080016 66 23 2.0 4.0 0.00 0.00 0.00 77 1004.8
20260505075016 65 29 2.0 3.0 0.00 0.00 0.00 78 1004.7
20260505074016 65 42 1.0 3.0 0.00 0.00 0.00 80 1004.8
20260505073016 65 354 1.0 3.0 0.00 0.00 0.00 80 1004.9
20260505072016 65 76 0.0 2.0 0.00 0.00 0.00 81 1005.0
20260505071018 65 0.0 1.0 0.00 0.00 0.00 79 1005.4
20260505070016 64 156 1.0 2.0 0.00 0.00 0.00 79 1005.6
20260505065016 65 119 2.0 5.0 0.00 0.00 0.00 79 1005.8
20260505064016 64 313 1.0 3.0 0.00 0.00 0.00 79 1006.2
20260505063016 63 321 3.0 4.0 0.00 0.00 0.00 83 1006.5
20260505062016 62 146 1.0 2.0 0.00 0.00 0.00 82 1006.6
20260505061036 62 141 1.0 2.0 0.00 0.00 0.00 84 1006.4
20260505060016 62 141 0.0 2.0 0.00 0.00 0.00 84 1006.3
20260505055016 62 141 1.0 2.0 0.00 0.00 0.00 84 1006.3
20260505054016 62 141 1.0 2.0 0.00 0.00 0.00 85 1006.3
20260505053016 62 141 1.0 2.0 0.00 0.00 0.00 85 1006.3
20260505052016 62 141 0.0 1.0 0.00 0.00 0.00 84 1006.3
20260505051036 61 141 0.0 2.0 0.00 0.00 0.00 86 1006.4
20260505041016 61 146 0.0 1.0 0.00 0.00 0.00 86 1007.1
20260505040036 61 146 0.0 1.0 0.00 0.00 0.00 85 1007.2
20260505035016 62 146 0.0 1.0 0.00 0.00 0.00 84 1007.3
20260505034016 62 146 0.0 1.0 0.00 0.00 0.00 82 1007.3
20260505033016 63 0.0 0.0 0.00 0.00 0.00 81 1007.3
20260505032016 64 146 0.0 1.0 0.00 0.00 0.00 80 1007.4
20260505031016 64 146 0.0 1.0 0.00 0.00 0.00 79 1007.5
20260505030016 64 0.0 1.0 0.00 0.00 0.00 78 1007.6
20260505025016 65 147 1.0 2.0 0.00 0.00 0.00 77 1007.4
20260505024038 66 153 0.0 1.0 0.00 0.00 0.00 75 1007.3
20260505023016 66 163 1.0 5.0 0.00 0.00 0.00 74 1007.1
20260505022016 67 164 1.0 2.0 0.00 0.00 0.00 73 1006.8
20260505021016 67 164 0.0 1.0 0.00 0.00 0.00 72 1006.8
20260505020036 68 164 1.0 2.0 0.00 0.00 0.00 71 1006.6
20260505015036 69 164 1.0 2.0 0.00 0.00 0.00 69 1006.5
20260505014036 70 164 0.0 2.0 0.00 0.00 0.00 68 1006.4
20260505013015 71 168 0.0 2.0 0.00 0.00 0.00 62 1006.4
20260505012015 71 168 1.0 3.0 0.00 0.00 0.00 62 1006.4
20260505011015 72 184 1.0 6.0 0.00 0.00 0.00 61 1006.3
20260505010036 72 178 2.0 6.0 0.00 0.00 0.00 60 1006.1
20260505005016 73 173 3.0 11.0 0.00 0.00 0.00 60 1006.0
20260505004036 73 170 2.0 5.0 0.00 0.00 0.00 60 1006.1
20260505003016 74 168 2.0 5.0 0.00 0.00 0.00 59 1006.1
20260505002016 74 172 3.0 10.0 0.00 0.00 0.00 58 1006.2
20260505001036 74 180 3.0 11.0 0.00 0.00 0.00 58 1006.2
20260505000036 74 168 3.0 7.0 0.00 0.00 0.00 57 1006.1
20260504235015 74 170 5.0 10.0 0.00 0.00 0.00 57 1006.2
20260504234036 75 163 4.0 11.0 0.00 0.00 0.00 57 1006.4
20260504233016 75 165 4.0 9.0 0.00 0.00 0.00 57 1006.5
20260504232036 75 163 4.0 9.0 0.00 0.00 0.00 56 1006.5
20260504231015 75 169 7.0 13.0 0.00 0.00 0.00 55 1006.6
20260504230015 76 172 6.0 12.0 0.00 0.00 0.00 56 1006.6
20260504225015 76 162 6.0 12.0 0.00 0.00 0.00 55 1006.7
20260504224016 76 158 4.0 12.0 0.00 0.00 0.00 56 1006.8
20260504223016 77 159 6.0 13.0 0.00 0.00 0.00 54 1006.9
20260504222015 77 151 5.0 13.0 0.00 0.00 0.00 54 1007.0
20260504221015 78 163 5.0 9.0 0.00 0.00 0.00 54 1006.9
20260504220016 77 170 6.0 13.0 0.00 0.00 0.00 53 1006.9
20260504215041 78 166 8.0 16.0 0.00 0.00 0.00 52 1007.1
20260504214015 78 161 7.0 12.0 0.00 0.00 0.00 52 1007.2
20260504213015 78 160 9.0 15.0 0.00 0.00 0.00 50 1007.3
20260504212016 79 178 8.0 15.0 0.00 0.00 0.00 50 1007.5
20260504211016 80 196 5.0 12.0 0.00 0.00 0.00 51 1007.5
20260504210016 79 197 5.0 12.0 0.00 0.00 0.00 51 1007.7
20260504205016 79 171 9.0 16.0 0.00 0.00 0.00 50 1007.9
20260504204016 79 203 8.0 14.0 0.00 0.00 0.00 49 1008.0
20260504203016 79 199 8.0 14.0 0.00 0.00 0.00 50 1008.3
20260504202016 79 191 6.0 17.0 0.00 0.00 0.00 50 1008.4
20260504201016 78 168 7.0 17.0 0.00 0.00 0.00 52 1008.5
20260504200015 79 175 9.0 17.0 0.00 0.00 0.00 49 1008.7
20260504195016 79 195 8.0 18.0 0.00 0.00 0.00 50 1008.9
20260504194015 79 205 8.0 17.0 0.00 0.00 0.00 49 1009.1
20260504193017 80 198 7.0 15.0 0.00 0.00 0.00 50 1009.1
20260504192018 79 177 7.0 14.0 0.00 0.00 0.00 51 1009.3
20260504191018 79 198 6.0 18.0 0.00 0.00 0.00 50 1009.4
20260504190018 79 236 8.0 15.0 0.00 0.00 0.00 47 1009.6
20260504185018 79 214 6.0 16.0 0.00 0.00 0.00 50 1009.7
20260504184018 78 175 8.0 17.0 0.00 0.00 0.00 51 1009.8
20260504183018 79 217 6.0 14.0 0.00 0.00 0.00 49 1010.0
20260504182017 78 220 6.0 15.0 0.00 0.00 0.00 49 1010.1
20260504181016 78 203 7.0 15.0 0.00 0.00 0.00 49 1010.2
20260504180018 79 179 6.0 19.0 0.00 0.00 0.00 51 1010.2
20260504175017 78 226 4.0 13.0 0.00 0.00 0.00 50 1010.3
20260504174018 77 232 7.0 20.0 0.00 0.00 0.00 48 1010.5
20260504173018 77 236 8.0 18.0 0.00 0.00 0.00 48 1010.6
20260504172018 77 225 7.0 16.0 0.00 0.00 0.00 47 1010.7
20260504171018 77 221 7.0 16.0 0.00 0.00 0.00 49 1010.8
20260504151059 73 240 5.0 12.0 0.00 0.00 0.00 55 1011.7
20260504141018 70 230 4.0 10.0 0.00 0.00 0.00 55 1012.0